Погода в Фульпмесе

Австрия     47°09′07″N   11°20′54″E
темп.,
°C
ветер,
м/с
пор.,
м/с
влажн.,
%
обл.,
%
осадки,
мм/ч
давл.,
гПа
погр.,
м
13 апреля, вт
вт1323:00−6ссз2397100 3.3 1030265
02:00−7с2298100 7.3 1030201
05:00−8ссз1298100 1.9 103191
08:00−7ссз1296100 2.8 1031224
11:00−4с2287100 0.6 1029793
14:00−3с2284100 1.4 10281069
17:00−2с2384100 0.8 1027830
20:00−7сз1198100 1.5 103016
14 апреля, ср
ср1423:00−9зсз009996 0.6 103317
02:00−11юз219995 0.8 103416
05:00−12юз119897 0.1 103316
08:00−8юз019585 0.2 1031121
11:00−3св1281100 0.2 10281041
14:00−2ссв1185100 0.6 1025903
17:00−2с2289100 0.9 1023540
20:00−4с2398100 2.2 1026140
15 апреля, чт
чт1523:00−8с01100100 0.9 102934
02:00−10юз119883 1.1 102913
05:00−11ююз2196100 0.1 103018
08:00−8юз119596 0.1 102871
11:00−3ссв118599 0.3 1025829
14:00−1с228269 1.1 10231030
17:00−2с2282100 1.4 1022729
20:00
16 апреля, пт
пт1623:00−10ююз219738 0.1 102815
02:00−12ююз229528 0.1 102917
05:00−13ююз229325 0.0 102815
08:00−8ю11895 0.0 102553
11:00−2всв128447 0.0 1021699
14:000св228285 0.2 1019984
17:00+1ссв228595 0.6 1018810
20:00−3с119860 0.7 102212
17 апреля, сб
сб1723:00−6ююз119884 0.3 102315
02:00−9ююз219734 0.3 102414
05:00−8ююз219670 0.0 102341
08:00−4ююв019388 0.1 1021282
11:00−1всв119193 0.1 1018576
14:000ссв228897 0.3 1017783
17:00+1ссв229092 0.4 1016656
20:00−2ссз119979 1.0 101840